Sparta, IL

10:02 PM CST on December 04, 2016 (GMT -0600)
Sparta Community-Hunter

Weather History for KSAR - November, 2012

Change the Weather History Date:

Thursday, November 22, 2012

  Actual Average (KBLV) Record (KBLV)
Temperature  
Mean Temperature 53 °F -  
Max Temperature 64 °F 52 °F 72 °F (2010)
Min Temperature 42 °F 32 °F 11 °F (1964)
Degree Days  
Heating Degree Days 12    
Growing Degree Days 3 (Base 50)    
Moisture  
Dew Point 49 °F    
Average Humidity 85    
Maximum Humidity 100    
Minimum Humidity 45    
Precipitation  
Precipitation 0.25 in - - ()
Sea Level Pressure  
Sea Level Pressure 30.08 in    
Wind  
Wind Speed 8 mph (South)    
Max Wind Speed 18 mph    
Max Gust Speed 24 mph    
Visibility 8 miles    
Events Rain , Thunderstorm    
Averages and records for this station are not official NWS values.
T = Trace of Precipitation, MM = Missing Value Source: NWS Daily Summary

Daily Weather History Graph

Daily Weather History Graph

Search for Another Location

Airport or City:

Trip Planner

Search our weather history database for the weather conditions in past years. The results will help you decide how hot, cold, wet, or windy it might be!

Date:

Astronomy

Nov. 22, 2012 Rise Set
Actual Time 6:47 AM CST 4:42 PM CST
Civil Twilight 6:19 AM CST 5:10 PM CST
Nautical Twilight 5:46 AM CST 5:42 PM CST
Astronomical Twilight 5:15 AM CST 6:14 PM CST
Moon 1:23 PM CST (11/22) 1:12 AM CST (11/22)
Length of Visible Light 10h 51m
Length of Day
9h 54m
Waxing Gibbous, 71% of the Moon is Illuminated
Nov 22
Waxing Gibbous
Nov 28
Full
Dec 6
Last Quarter
Dec 13
New
Dec 19
First Quarter

Hourly Weather History & Observations

Time (CST) Temp. Windchill Dew Point Humidity Pressure Visibility Wind Dir Wind Speed Gust Speed Precip Events Conditions
12:15 AM 42.8 °F 41.1 °F 42.8 °F 100% 30.18 in 4.0 mi ESE 3.5 mph - N/A   Clear
12:35 AM 44.6 °F 43.1 °F 44.6 °F 100% 30.18 in 5.0 mi SE 3.5 mph - N/A   Clear
12:55 AM 44.6 °F 41.4 °F 44.6 °F 100% 30.17 in 5.0 mi SSE 5.8 mph - N/A   Clear
1:15 AM 46.4 °F 44.3 °F 46.4 °F 100% 30.17 in 5.0 mi SSE 4.6 mph - N/A   Clear
1:35 AM 46.4 °F 43.5 °F 46.4 °F 100% 30.17 in 5.0 mi SSE 5.8 mph - N/A   Clear
1:55 AM 46.4 °F 44.3 °F 46.4 °F 100% 30.16 in 5.0 mi SSE 4.6 mph - N/A   Clear
2:15 AM 44.6 °F 42.2 °F 44.6 °F 100% 30.17 in 4.0 mi SE 4.6 mph - N/A   Clear
2:35 AM 44.6 °F 42.2 °F 44.6 °F 100% 30.16 in 3.0 mi SSE 4.6 mph - N/A   Clear
2:55 AM 42.8 °F 40.1 °F 42.8 °F 100% 30.16 in 2.5 mi SSE 4.6 mph - N/A   Clear
3:15 AM 44.6 °F 42.2 °F 44.6 °F 100% 30.15 in 3.0 mi SSE 4.6 mph - N/A   Clear
3:35 AM 44.6 °F 42.2 °F 44.6 °F 100% 30.15 in 2.5 mi SSE 4.6 mph - N/A   Clear
3:55 AM 44.6 °F 42.2 °F 44.6 °F 100% 30.15 in 2.5 mi SSE 4.6 mph - N/A   Clear
4:15 AM 46.4 °F 42.9 °F 46.4 °F 100% 30.14 in 5.0 mi South 6.9 mph - N/A   Clear
4:35 AM 46.4 °F 42.9 °F 46.4 °F 100% 30.14 in 4.0 mi SSE 6.9 mph - N/A   Clear
4:55 AM 44.6 °F 41.4 °F 44.6 °F 100% 30.14 in 3.0 mi SSE 5.8 mph - N/A   Clear
5:15 AM 44.6 °F 41.4 °F 44.6 °F 100% 30.14 in 3.0 mi SSE 5.8 mph - N/A   Clear
5:35 AM 44.6 °F 41.4 °F 44.6 °F 100% 30.13 in 4.0 mi SSE 5.8 mph - N/A   Clear
5:55 AM 44.6 °F 41.4 °F 44.6 °F 100% 30.13 in 4.0 mi SSE 5.8 mph - N/A   Clear
6:15 AM 44.6 °F 40.7 °F 44.6 °F 100% 30.13 in 4.0 mi SSE 6.9 mph - N/A   Clear
6:35 AM 46.4 °F 42.4 °F 46.4 °F 100% 30.13 in 4.0 mi South 8.1 mph - N/A   Clear
6:55 AM 48.2 °F - 48.2 °F 100% 30.13 in 4.0 mi South 9.2 mph - N/A   Clear
7:15 AM 48.2 °F - 48.2 °F 100% 30.13 in 4.0 mi South 9.2 mph - N/A   Clear
7:35 AM 48.2 °F - 48.2 °F 100% 30.13 in 5.0 mi South 9.2 mph - N/A   Clear
7:55 AM 50.0 °F - 50.0 °F 100% 30.13 in 5.0 mi South 12.7 mph - N/A   Clear
8:15 AM 51.8 °F - 51.8 °F 100% 30.12 in 5.0 mi South 11.5 mph - N/A   Clear
8:35 AM 51.8 °F - 51.8 °F 100% 30.11 in 7.0 mi South 13.8 mph 18.4 mph N/A   Clear
8:55 AM 51.8 °F - 51.8 °F 100% 30.12 in 7.0 mi South 8.1 mph - N/A   Clear
9:15 AM 53.6 °F - 53.6 °F 100% 30.11 in 7.0 mi South 13.8 mph 20.7 mph N/A   Clear
9:35 AM 55.4 °F - 53.6 °F 94% 30.11 in 7.0 mi South 11.5 mph 23.0 mph N/A   Clear
9:55 AM 55.4 °F - 53.6 °F 94% 30.11 in 10.0 mi SSW 12.7 mph 21.9 mph N/A   Clear
10:15 AM 55.4 °F - 53.6 °F 94% 30.10 in 10.0 mi South 17.3 mph 24.2 mph N/A   Clear
10:35 AM 57.2 °F - 53.6 °F 88% 30.10 in 10.0 mi South 15.0 mph 18.4 mph N/A   Clear
10:55 AM 59.0 °F - 53.6 °F 82% 30.09 in 10.0 mi SSW 16.1 mph 20.7 mph N/A   Clear
11:15 AM 60.8 °F - 53.6 °F 77% 30.08 in 10.0 mi South 15.0 mph 20.7 mph N/A   Clear
11:35 AM 62.6 °F - 51.8 °F 68% 30.07 in 10.0 mi South 11.5 mph 15.0 mph N/A   Clear
11:55 AM 62.6 °F - 48.2 °F 59% 30.06 in 10.0 mi South 15.0 mph 19.6 mph N/A   Clear
12:15 PM 64.4 °F - 46.4 °F 52% 30.05 in 10.0 mi SSW 16.1 mph 20.7 mph N/A   Clear
12:35 PM 64.4 °F - 44.6 °F 49% 30.04 in 10.0 mi SSW 13.8 mph 18.4 mph N/A   Clear
12:55 PM 64.4 °F - 42.8 °F 45% 30.04 in 10.0 mi SSW 13.8 mph 19.6 mph N/A   Clear
1:15 PM 64.4 °F - 42.8 °F 45% 30.03 in 10.0 mi South 12.7 mph 18.4 mph N/A   Clear
1:35 PM 64.4 °F - 42.8 °F 45% 30.02 in 10.0 mi South 13.8 mph - N/A   Clear
1:55 PM 64.4 °F - 44.6 °F 49% 30.01 in 10.0 mi South 15.0 mph 20.7 mph N/A   Clear
2:15 PM 64.4 °F - 46.4 °F 52% 30.01 in 10.0 mi South 18.4 mph 21.9 mph N/A   Clear
2:35 PM 62.6 °F - 46.4 °F 55% 30.01 in 10.0 mi South 15.0 mph - N/A   Clear
2:55 PM 62.6 °F - 46.4 °F 55% 30.01 in 10.0 mi South 10.4 mph 17.3 mph N/A   Clear
3:15 PM 62.6 °F - 46.4 °F 55% 30.00 in 10.0 mi South 15.0 mph 21.9 mph N/A   Clear
3:35 PM 60.8 °F - 46.4 °F 59% 30.00 in 10.0 mi South 13.8 mph 18.4 mph N/A   Clear
3:55 PM 60.8 °F - 46.4 °F 59% 30.01 in 10.0 mi South 10.4 mph 18.4 mph N/A   Clear
4:15 PM 60.8 °F - 46.4 °F 59% 30.00 in 10.0 mi South 12.7 mph 18.4 mph N/A   Clear
4:35 PM 60.8 °F - 48.2 °F 63% 30.00 in 10.0 mi South 12.7 mph 19.6 mph N/A   Clear
4:55 PM 60.8 °F - 48.2 °F 63% 30.00 in 10.0 mi South 10.4 mph - N/A   Clear
5:15 PM 60.8 °F - 48.2 °F 63% 30.00 in 10.0 mi South 10.4 mph - N/A   Scattered Clouds
5:35 PM 60.8 °F - 48.2 °F 63% 30.00 in 10.0 mi South 11.5 mph 16.1 mph N/A   Scattered Clouds
5:55 PM 60.8 °F - 48.2 °F 63% 30.00 in 10.0 mi South 9.2 mph 18.4 mph N/A   Mostly Cloudy
6:15 PM 60.8 °F - 50.0 °F 68% 30.00 in 10.0 mi South 10.4 mph 19.6 mph N/A   Mostly Cloudy
6:35 PM 60.8 °F - 50.0 °F 68% 30.00 in 10.0 mi South 10.4 mph 16.1 mph N/A   Overcast
6:55 PM 60.8 °F - 50.0 °F 68% 30.00 in 10.0 mi South 10.4 mph - N/A Thunderstorm Overcast
7:15 PM 60.8 °F - 50.0 °F 68% 30.01 in 10.0 mi SSW 11.5 mph 16.1 mph N/A Thunderstorm Thunderstorm
7:35 PM 57.2 °F - 55.4 °F 94% 30.03 in 10.0 mi SSW 13.8 mph 17.3 mph N/A Rain Light Rain
7:55 PM 57.2 °F - 55.4 °F 94% 30.02 in 10.0 mi SSW 9.2 mph - N/A Rain Rain
8:15 PM 57.2 °F - 55.4 °F 94% 30.04 in 10.0 mi SW 6.9 mph - N/A   Mostly Cloudy
8:35 PM 57.2 °F - 55.4 °F 94% 30.06 in 10.0 mi SW 6.9 mph - N/A Rain Light Rain
8:55 PM 55.4 °F - 55.4 °F 100% 30.06 in 10.0 mi SW 10.4 mph - 0.05 in Rain Rain
9:15 PM 55.4 °F - 55.4 °F 100% 30.06 in 10.0 mi SW 6.9 mph - 0.08 in Rain Heavy Rain
9:35 PM 55.4 °F - 55.4 °F 100% 30.05 in 10.0 mi SSW 12.7 mph 16.1 mph 0.15 in Rain Rain
9:55 PM 55.4 °F - 55.4 °F 100% 30.05 in 10.0 mi SSW 10.4 mph - 0.18 in Rain Rain
10:15 PM 55.4 °F - 55.4 °F 100% 30.04 in 10.0 mi South 10.4 mph - 0.01 in Rain Light Rain
10:35 PM 55.4 °F - 55.4 °F 100% 30.04 in 10.0 mi SSW 13.8 mph 19.6 mph 0.02 in Rain Rain
10:55 PM 55.4 °F - 55.4 °F 100% 30.05 in 10.0 mi SW 9.2 mph - 0.02 in   Overcast
11:15 PM 55.4 °F - 55.4 °F 100% 30.06 in 10.0 mi WSW 9.2 mph 16.1 mph N/A   Overcast
11:35 PM 55.4 °F - 55.4 °F 100% 30.06 in 10.0 mi WSW 8.1 mph - N/A   Overcast
11:55 PM 55.4 °F - 55.4 °F 100% 30.07 in 10.0 mi WSW 5.8 mph - N/A   Overcast